Home > Weather > Ålesund > Past weeks

Flag for Norway Past Weather in Ålesund, Norway — Yesterday and Last 2 Weeks

Now
61 °F

Scattered showers. Scattered clouds.


Feels Like: 61 °F
Forecast: 50 / 60 °F
Wind: 12 mph from Northeast

Location: Alesund / Vigra

Current Time: Jun 29, 2016 at 4:35:03 PM

Latest Report: Jun 29, 2016 at 3:50 PM


Visibility: N/A

Pressure: 29.68 "Hg

Humidity: 68%

Dew Point: 50 °F

Location of ÅlesundLocation

Past Weather in Ålesund — Graph

°F

Ålesund Temperature Yesterday

Maximum temperature yesterday: 57 °F (at 9:20 AM)
Minimum temperature yesterday: 50 °F (at 3:20 AM)
Average temperature yesterday: 55 °F

High & Low Weather Summary for the Past Weeks

 TemperatureHumidityPressure
High64 °F (Jun 22, 4:50 PM)100% (Jun 24, 6:20 AM)30.12 "Hg (Jun 24, 6:20 AM)
Low41 °F (Jun 20, 4:20 AM)52% (Jun 20, 12:20 PM)29.56 "Hg (Jun 20, 7:20 PM)
Average53 °F83%29.85 "Hg
* Reported Jun 14 3:20 PM — Jun 29 3:20 PM, Ålesund, Weather by CustomWeather, © 2016

Note: Actual official high and low records may vary slightly from our data, if they occured in-between our weather recording intervals... More about our weather records

Advertising

Ålesund Weather History for the Previous 24 Hours

Scroll right to see more
 ConditionsComfort  
Time TempWeatherWind HumidityBarometerVisibility
3:20 PM
Wed, Jun 29
63 °FScattered clouds.10 mph68%29.71 "HgN/A
2:50 PM64 °FScattered clouds.15 mph64%29.71 "HgN/A
2:20 PM63 °FScattered clouds.13 mph68%29.71 "HgN/A
1:50 PM63 °FPassing clouds.13 mph68%29.71 "HgN/A
1:20 PM63 °FPassing clouds.12 mph68%29.71 "HgN/A
12:50 PM61 °FPassing clouds.10 mph68%29.71 "HgN/A
12:20 PM61 °FPassing clouds.9 mph68%29.74 "HgN/A
11:50 AM61 °FSunny.9 mph68%29.74 "Hg10 mi
11:20 AM59 °FSunny.10 mph72%29.74 "Hg10 mi
10:50 AM59 °FSunny.9 mph72%29.77 "Hg10 mi
10:20 AM57 °FSunny.10 mph77%29.77 "Hg10 mi
9:50 AM57 °FSunny.12 mph77%29.77 "Hg10 mi
9:20 AM55 °FSunny.10 mph82%29.77 "Hg10 mi
8:50 AM55 °FSunny.10 mph82%29.80 "Hg10 mi
8:20 AM55 °FPassing clouds.6 mph77%29.80 "HgN/A
7:50 AM54 °FSunny.10 mph88%29.80 "Hg10 mi
7:20 AM54 °FSunny.8 mph88%29.80 "Hg10 mi
6:50 AM54 °FSunny.7 mph88%29.83 "Hg10 mi
6:20 AM52 °FClear.2 mph88%29.83 "HgN/A
5:50 AM50 °FSunny.2 mph94%29.83 "Hg10 mi
5:20 AM50 °FCool.3 mph94%29.83 "HgN/A
4:50 AM48 °FCool.8 mph94%29.86 "HgN/A
4:20 AM46 °FCool.5 mph100%29.86 "HgN/A
3:50 AM48 °FCool.5 mph94%29.86 "HgN/A
3:20 AM48 °FCool.6 mph94%29.86 "HgN/A
2:50 AM48 °FPassing clouds.3 mph94%29.86 "HgN/A
2:20 AM48 °FPassing clouds.6 mph94%29.86 "HgN/A
1:50 AM50 °FCool.8 mph88%29.86 "HgN/A
1:20 AM48 °FCool.5 mph94%29.89 "HgN/A
12:50 AM50 °FCool.3 mph88%29.89 "HgN/A
12:20 AM50 °FCool.6 mph94%29.89 "HgN/A
11:50 PM
Tue, Jun 28
50 °FPassing clouds.5 mph88%29.89 "HgN/A
11:20 PM52 °FScattered clouds.7 mph88%29.89 "HgN/A
10:50 PM55 °FScattered clouds.5 mph82%29.89 "HgN/A
10:20 PM55 °FPartly sunny.3 mph77%29.86 "HgN/A
9:50 PM55 °FPartly sunny.5 mph77%29.86 "HgN/A
9:20 PM57 °FPartly sunny.3 mph72%29.86 "HgN/A
8:50 PM55 °FScattered clouds.3 mph77%29.86 "HgN/A
8:20 PM57 °FSprinkles. Partly sunny.3 mph72%29.86 "HgN/A
7:50 PM55 °FPartly sunny.2 mph77%29.86 "HgN/A
7:20 PM55 °FBroken clouds.5 mph82%29.86 "HgN/A
6:50 PM55 °FBroken clouds.3 mph77%29.86 "HgN/A
6:20 PM54 °FLight rain. Broken clouds.7 mph88%29.86 "HgN/A
5:50 PM55 °FScattered showers. Broken clouds.9 mph77%29.86 "HgN/A
5:20 PM57 °FBroken clouds.10 mph72%29.86 "HgN/A
4:50 PM57 °FBroken clouds.10 mph67%29.86 "HgN/A
4:20 PM55 °FSprinkles. Broken clouds.8 mph77%29.83 "HgN/A
Weather by CustomWeather, © 2016

See weather overviewHow to use our weather pages